Time,TemperatureF,DewpointF,PressureIn,WindDirection,WindDirectionDegrees,WindSpeedMPH,WindSpeedGustMPH,Humidity,HourlyPrecipIn,Conditions,Clouds,dailyrainin,SoftwareType,DateUTC
2013-12-07 00:09:00,14.0,5.1,30.65,WNW,284,0.0,2.0,67,0.00,,,0.00,Wunderground v.1.15,2013-12-07 06:09:00,
2013-12-07 00:19:00,14.0,4.7,30.65,WNW,295,0.0,2.0,66,0.00,,,0.00,Wunderground v.1.15,2013-12-07 06:19:00,
2013-12-07 00:29:00,13.9,4.3,30.65,WNW,296,1.0,1.0,65,0.00,,,0.00,Wunderground v.1.15,2013-12-07 06:29:00,
2013-12-07 00:39:00,13.8,4.2,30.65,West,260,1.0,1.0,65,0.00,,,0.00,Wunderground v.1.15,2013-12-07 06:39:00,
2013-12-07 00:49:00,13.7,4.1,30.65,WSW,250,1.0,2.0,65,0.00,,,0.00,Wunderground v.1.15,2013-12-07 06:49:00,
2013-12-07 00:59:00,13.6,4.0,30.66,West,271,1.0,2.0,65,0.00,,,0.00,Wunderground v.1.15,2013-12-07 06:59:00,
2013-12-07 01:09:00,13.4,3.8,30.66,WNW,294,1.0,1.0,65,0.00,,,0.00,Wunderground v.1.15,2013-12-07 07:09:00,
2013-12-07 01:19:00,13.6,3.7,30.66,NNW,335,3.0,5.0,64,0.00,,,0.00,Wunderground v.1.15,2013-12-07 07:19:00,
2013-12-07 01:29:00,13.4,3.5,30.66,NW,319,3.0,3.0,64,0.00,,,0.00,Wunderground v.1.15,2013-12-07 07:29:00,
2013-12-07 01:34:00,13.3,3.4,30.66,WNW,300,2.0,3.0,64,0.00,,,0.00,Wunderground v.1.15,2013-12-07 07:34:00,
2013-12-07 01:44:00,13.2,3.6,30.67,NW,307,3.0,3.0,65,0.00,,,0.00,Wunderground v.1.15,2013-12-07 07:44:00,
2013-12-07 01:54:00,13.0,3.8,30.67,WNW,295,1.0,2.0,66,0.00,,,0.00,Wunderground v.1.15,2013-12-07 07:54:00,
2013-12-07 01:59:00,12.9,3.7,30.67,WNW,295,1.0,3.0,66,0.00,,,0.00,Wunderground v.1.15,2013-12-07 07:59:00,
2013-12-07 02:09:00,12.8,3.6,30.67,WNW,283,2.0,2.0,66,0.00,,,0.00,Wunderground v.1.15,2013-12-07 08:09:00,
2013-12-07 02:19:00,12.4,3.5,30.68,North,351,0.0,2.0,67,0.00,,,0.00,Wunderground v.1.15,2013-12-07 08:19:00,
2013-12-07 02:29:00,12.2,3.6,30.68,NNW,329,1.0,1.0,68,0.00,,,0.00,Wunderground v.1.15,2013-12-07 08:29:00,
2013-12-07 02:34:00,12.1,3.6,30.68,NNW,340,1.0,2.0,68,0.00,,,0.00,Wunderground v.1.15,2013-12-07 08:34:00,
2013-12-07 02:44:00,12.0,3.8,30.68,NNW,340,1.0,4.0,69,0.00,,,0.00,Wunderground v.1.15,2013-12-07 08:44:00,
2013-12-07 02:54:00,11.8,3.6,30.68,West,270,2.0,2.0,69,0.00,,,0.00,Wunderground v.1.15,2013-12-07 08:54:00,
2013-12-07 03:04:00,11.5,3.9,30.68,North,355,0.0,2.0,71,0.00,,,0.00,Wunderground v.1.15,2013-12-07 09:04:00,
2013-12-07 03:14:00,11.3,3.7,30.69,NW,311,0.0,2.0,71,0.00,,,0.00,Wunderground v.1.15,2013-12-07 09:14:00,
2013-12-07 03:24:00,11.2,3.6,30.69,NW,315,1.0,2.0,71,0.00,,,0.00,Wunderground v.1.15,2013-12-07 09:24:00,
2013-12-07 03:34:00,10.9,3.6,30.69,WNW,302,0.0,2.0,72,0.00,,,0.00,Wunderground v.1.15,2013-12-07 09:34:00,
2013-12-07 03:44:00,9.8,2.6,30.69,WNW,288,1.0,4.0,72,0.00,,,0.00,Wunderground v.1.15,2013-12-07 09:44:00,
2013-12-07 03:54:00,9.7,2.5,30.69,WNW,293,2.0,2.0,72,0.00,,,0.00,Wunderground v.1.15,2013-12-07 09:54:00,
2013-12-07 04:04:00,-999.9,-99.9,30.69,North,32767,-999.0,2.0,255,-99.99,,,0.00,Wunderground v.1.15,2013-12-07 10:04:00,
2013-12-07 04:14:00,-999.9,-99.9,30.69,North,32767,-999.0,2.0,255,-99.99,,,0.00,Wunderground v.1.15,2013-12-07 10:14:00,
2013-12-07 04:24:00,-999.9,-99.9,30.69,North,32767,-999.0,2.0,255,-99.99,,,0.00,Wunderground v.1.15,2013-12-07 10:24:00,
2013-12-07 04:29:00,-999.9,-99.9,30.70,North,32767,-999.0,2.0,255,-99.99,,,0.00,Wunderground v.1.15,2013-12-07 10:29:00,
2013-12-07 04:39:00,-999.9,-99.9,30.69,North,32767,-999.0,2.0,255,-99.99,,,0.00,Wunderground v.1.15,2013-12-07 10:39:00,
2013-12-07 04:49:00,-999.9,-99.9,30.69,North,32767,-999.0,2.0,255,-99.99,,,0.00,Wunderground v.1.15,2013-12-07 10:49:00,
2013-12-07 04:59:00,-999.9,-99.9,30.69,North,32767,-999.0,2.0,255,-99.99,,,0.00,Wunderground v.1.15,2013-12-07 10:59:00,
2013-12-07 05:04:00,-999.9,-99.9,30.69,North,32767,-999.0,2.0,255,-99.99,,,0.00,Wunderground v.1.15,2013-12-07 11:04:00,
2013-12-07 05:09:00,-999.9,-99.9,30.69,North,32767,-999.0,2.0,255,-99.99,,,0.00,Wunderground v.1.15,2013-12-07 11:09:00,
2013-12-07 05:19:00,-999.9,-99.9,30.69,North,32767,-999.0,2.0,255,-99.99,,,0.00,Wunderground v.1.15,2013-12-07 11:19:00,
2013-12-07 05:29:00,-999.9,-99.9,30.69,North,32767,-999.0,2.0,255,-99.99,,,0.00,Wunderground v.1.15,2013-12-07 11:29:00,
2013-12-07 05:39:00,-999.9,-99.9,30.69,North,32767,-999.0,2.0,255,-99.99,,,0.00,Wunderground v.1.15,2013-12-07 11:39:00,
2013-12-07 05:44:00,-999.9,-99.9,30.69,North,32767,-999.0,2.0,255,-99.99,,,0.00,Wunderground v.1.15,2013-12-07 11:44:00,
2013-12-07 05:54:00,-999.9,-99.9,30.70,North,32767,-999.0,2.0,255,-99.99,,,0.00,Wunderground v.1.15,2013-12-07 11:54:00,
2013-12-07 06:04:00,-999.9,-99.9,30.71,North,32767,-999.0,2.0,255,-99.99,,,0.00,Wunderground v.1.15,2013-12-07 12:04:00,
2013-12-07 06:14:00,-999.9,-99.9,30.71,North,32767,-999.0,2.0,255,-99.99,,,0.00,Wunderground v.1.15,2013-12-07 12:14:00,
2013-12-07 06:24:00,-999.9,-99.9,30.71,North,32767,-999.0,2.0,255,-99.99,,,0.00,Wunderground v.1.15,2013-12-07 12:24:00,
2013-12-07 06:34:00,-999.9,-99.9,30.71,North,32767,-999.0,2.0,255,-99.99,,,0.00,Wunderground v.1.15,2013-12-07 12:34:00,
2013-12-07 06:39:00,-999.9,-99.9,30.71,North,32767,-999.0,2.0,255,-99.99,,,0.00,Wunderground v.1.15,2013-12-07 12:39:00,
2013-12-07 06:44:00,-999.9,-99.9,30.71,North,32767,-999.0,2.0,255,-99.99,,,0.00,Wunderground v.1.15,2013-12-07 12:44:00,
2013-12-07 06:54:00,-999.9,-99.9,30.71,North,32767,-999.0,2.0,255,-99.99,,,0.00,Wunderground v.1.15,2013-12-07 12:54:00,
2013-12-07 07:04:00,-999.9,-99.9,30.71,North,32767,-999.0,2.0,255,-99.99,,,0.00,Wunderground v.1.15,2013-12-07 13:04:00,
2013-12-07 07:14:00,-999.9,-99.9,30.71,North,32767,-999.0,2.0,255,-99.99,,,0.00,Wunderground v.1.15,2013-12-07 13:14:00,
2013-12-07 07:24:00,-999.9,-99.9,30.71,North,32767,-999.0,2.0,255,-99.99,,,0.00,Wunderground v.1.15,2013-12-07 13:24:00,
2013-12-07 07:34:00,-999.9,-99.9,30.72,North,32767,-999.0,2.0,255,-99.99,,,0.00,Wunderground v.1.15,2013-12-07 13:34:00,
2013-12-07 07:39:00,-999.9,-99.9,30.73,North,32767,-999.0,2.0,255,-99.99,,,0.00,Wunderground v.1.15,2013-12-07 13:39:00,
2013-12-07 07:44:00,-999.9,-99.9,30.73,North,32767,-999.0,2.0,255,-99.99,,,0.00,Wunderground v.1.15,2013-12-07 13:44:00,
2013-12-07 07:54:00,-999.9,-99.9,30.73,North,32767,-999.0,2.0,255,-99.99,,,0.00,Wunderground v.1.15,2013-12-07 13:54:00,
2013-12-07 08:04:00,12.1,5.4,30.73,NNE,14,3.0,4.0,74,0.00,,,0.00,Wunderground v.1.15,2013-12-07 14:04:00,
2013-12-07 08:14:00,12.5,5.5,30.74,NW,316,4.0,4.0,73,0.00,,,0.00,Wunderground v.1.15,2013-12-07 14:14:00,
2013-12-07 08:24:00,12.9,5.6,30.73,NNW,335,5.0,6.0,72,0.00,,,0.00,Wunderground v.1.15,2013-12-07 14:24:00,
2013-12-07 08:34:00,13.2,5.9,30.74,North,352,5.0,5.0,72,0.00,,,0.00,Wunderground v.1.15,2013-12-07 14:34:00,
2013-12-07 08:44:00,13.4,5.7,30.74,NW,316,5.0,5.0,71,0.00,,,0.00,Wunderground v.1.15,2013-12-07 14:44:00,
2013-12-07 08:54:00,13.9,5.9,30.74,North,349,4.0,5.0,70,0.00,,,0.00,Wunderground v.1.15,2013-12-07 14:54:00,
2013-12-07 09:04:00,14.5,6.2,30.74,NNW,333,3.0,5.0,69,0.00,,,0.00,Wunderground v.1.15,2013-12-07 15:04:00,
2013-12-07 09:14:00,14.9,6.6,30.74,NNE,12,4.0,4.0,69,0.00,,,0.00,Wunderground v.1.15,2013-12-07 15:14:00,
2013-12-07 09:24:00,15.1,6.1,30.74,NNW,342,5.0,5.0,67,0.00,,,0.00,Wunderground v.1.15,2013-12-07 15:24:00,
2013-12-07 09:34:00,15.9,6.9,30.75,NW,314,3.0,4.0,67,0.00,,,0.00,Wunderground v.1.15,2013-12-07 15:34:00,
2013-12-07 09:44:00,16.3,6.9,30.75,WNW,303,3.0,4.0,66,0.00,,,0.00,Wunderground v.1.15,2013-12-07 15:44:00,
2013-12-07 09:49:00,16.4,7.3,30.75,NE,36,2.0,2.0,67,0.00,,,0.00,Wunderground v.1.15,2013-12-07 15:49:00,
2013-12-07 09:59:00,17.3,7.2,30.75,NW,326,1.0,2.0,64,0.00,,,0.00,Wunderground v.1.15,2013-12-07 15:59:00,
2013-12-07 10:09:00,18.0,7.5,30.74,NNW,342,2.0,3.0,63,0.00,,,0.00,Wunderground v.1.15,2013-12-07 16:09:00,
2013-12-07 10:19:00,17.3,6.5,30.74,NW,311,4.0,4.0,62,0.00,,,0.00,Wunderground v.1.15,2013-12-07 16:19:00,
2013-12-07 10:29:00,17.3,6.8,30.74,NE,49,5.0,5.0,63,0.00,,,0.00,Wunderground v.1.15,2013-12-07 16:29:00,
2013-12-07 10:39:00,17.9,7.4,30.73,North,4,3.0,4.0,63,0.00,,,0.00,Wunderground v.1.15,2013-12-07 16:39:00,
2013-12-07 10:49:00,18.2,7.0,30.73,North,360,4.0,4.0,61,0.00,,,0.00,Wunderground v.1.15,2013-12-07 16:49:00,
2013-12-07 10:59:00,18.6,6.6,30.73,NNW,346,4.0,5.0,59,0.00,,,0.00,Wunderground v.1.15,2013-12-07 16:59:00,
2013-12-07 11:09:00,19.1,7.5,30.73,WNW,297,3.0,3.0,60,0.00,,,0.00,Wunderground v.1.15,2013-12-07 17:09:00,
2013-12-07 11:19:00,19.8,8.1,30.73,NNW,333,2.0,5.0,60,0.00,,,0.00,Wunderground v.1.15,2013-12-07 17:19:00,
2013-12-07 11:29:00,20.2,7.0,30.72,NW,307,2.0,2.0,56,0.00,,,0.00,Wunderground v.1.15,2013-12-07 17:29:00,
2013-12-07 11:39:00,20.8,8.3,30.72,North,11,0.0,2.0,58,0.00,,,0.00,Wunderground v.1.15,2013-12-07 17:39:00,
2013-12-07 11:49:00,20.6,7.4,30.71,NW,308,2.0,2.0,56,0.00,,,0.00,Wunderground v.1.15,2013-12-07 17:49:00,
2013-12-07 11:59:00,21.0,7.3,30.70,NNW,331,0.0,2.0,55,0.00,,,0.00,Wunderground v.1.15,2013-12-07 17:59:00,
2013-12-07 12:09:00,21.1,7.0,30.70,North,5,3.0,3.0,54,0.00,,,0.00,Wunderground v.1.15,2013-12-07 18:09:00,
2013-12-07 12:19:00,21.2,7.5,30.69,NNE,16,1.0,1.0,55,0.00,,,0.00,Wunderground v.1.15,2013-12-07 18:19:00,
2013-12-07 12:29:00,21.7,8.0,30.67,North,1,1.0,1.0,55,0.00,,,0.00,Wunderground v.1.15,2013-12-07 18:29:00,
2013-12-07 12:39:00,22.1,8.4,30.67,WNW,291,1.0,1.0,55,0.00,,,0.00,Wunderground v.1.15,2013-12-07 18:39:00,
2013-12-07 12:49:00,22.1,8.4,30.66,North,350,1.0,1.0,55,0.00,,,0.00,Wunderground v.1.15,2013-12-07 18:49:00,
2013-12-07 12:59:00,22.2,8.1,30.66,NNW,338,1.0,1.0,54,0.00,,,0.00,Wunderground v.1.15,2013-12-07 18:59:00,
2013-12-07 13:09:00,22.4,8.2,30.65,NW,326,1.0,1.0,54,0.00,,,0.00,Wunderground v.1.15,2013-12-07 19:09:00,
2013-12-07 13:19:00,22.5,8.3,30.64,WNW,293,1.0,1.0,54,0.00,,,0.00,Wunderground v.1.15,2013-12-07 19:19:00,
2013-12-07 13:29:00,22.8,8.2,30.63,NNE,16,1.0,2.0,53,0.00,,,0.00,Wunderground v.1.15,2013-12-07 19:29:00,
2013-12-07 13:39:00,22.5,8.7,30.63,NNE,13,2.0,2.0,55,0.00,,,0.00,Wunderground v.1.15,2013-12-07 19:39:00,
2013-12-07 13:49:00,22.6,8.0,30.63,West,278,1.0,1.0,53,0.00,,,0.00,Wunderground v.1.15,2013-12-07 19:49:00,
2013-12-07 13:59:00,22.5,7.9,30.63,NW,316,1.0,1.0,53,0.00,,,0.00,Wunderground v.1.15,2013-12-07 19:59:00,
2013-12-07 14:09:00,22.5,8.7,30.63,NNE,24,0.0,2.0,55,0.00,,,0.00,Wunderground v.1.15,2013-12-07 20:09:00,
2013-12-07 14:19:00,22.8,8.6,30.63,NNW,331,0.0,2.0,54,0.00,,,0.00,Wunderground v.1.15,2013-12-07 20:19:00,
2013-12-07 14:29:00,23.1,8.5,30.62,NNW,335,0.0,2.0,53,0.00,,,0.00,Wunderground v.1.15,2013-12-07 20:29:00,
2013-12-07 14:39:00,23.2,9.4,30.61,NNW,339,0.0,2.0,55,0.00,,,0.00,Wunderground v.1.15,2013-12-07 20:39:00,
2013-12-07 14:49:00,23.1,8.1,30.61,NE,50,0.0,2.0,52,0.00,,,0.00,Wunderground v.1.15,2013-12-07 20:49:00,
2013-12-07 14:59:00,22.6,7.6,30.61,NW,325,1.0,1.0,52,0.00,,,0.00,Wunderground v.1.15,2013-12-07 20:59:00,
2013-12-07 15:09:00,22.4,7.4,30.61,NNW,331,1.0,1.0,52,0.00,,,0.00,Wunderground v.1.15,2013-12-07 21:09:00,
2013-12-07 15:19:00,22.7,8.1,30.60,NNW,344,1.0,1.0,53,0.00,,,0.00,Wunderground v.1.15,2013-12-07 21:19:00,
2013-12-07 15:29:00,22.7,8.1,30.59,NW,326,1.0,5.0,53,0.00,,,0.00,Wunderground v.1.15,2013-12-07 21:29:00,
2013-12-07 15:39:00,22.4,8.2,30.59,North,1,1.0,2.0,54,0.00,,,0.00,Wunderground v.1.15,2013-12-07 21:39:00,
2013-12-07 15:49:00,22.1,8.0,30.58,NNW,343,1.0,1.0,54,0.00,,,0.00,Wunderground v.1.15,2013-12-07 21:49:00,
2013-12-07 15:59:00,21.8,7.7,30.57,North,356,2.0,8.0,54,0.00,,,0.00,Wunderground v.1.15,2013-12-07 21:59:00,
2013-12-07 16:09:00,21.4,7.7,30.55,NNW,344,3.0,7.0,55,0.00,,,0.00,Wunderground v.1.15,2013-12-07 22:09:00,
2013-12-07 16:19:00,21.1,7.8,30.53,North,349,5.0,9.0,56,0.00,,,0.00,Wunderground v.1.15,2013-12-07 22:19:00,
2013-12-07 16:29:00,20.9,8.0,30.55,NNE,19,2.0,2.0,57,0.00,,,0.00,Wunderground v.1.15,2013-12-07 22:29:00,
2013-12-07 16:39:00,20.7,7.5,30.56,North,354,1.0,1.0,56,0.00,,,0.00,Wunderground v.1.15,2013-12-07 22:39:00,
2013-12-07 16:49:00,20.6,7.8,30.55,NNW,336,2.0,2.0,57,0.00,,,0.00,Wunderground v.1.15,2013-12-07 22:49:00,
2013-12-07 16:59:00,20.4,7.6,30.54,NW,304,3.0,3.0,57,0.00,,,0.00,Wunderground v.1.15,2013-12-07 22:59:00,
2013-12-07 17:09:00,20.2,7.0,30.55,NNW,335,2.0,2.0,56,0.00,,,0.00,Wunderground v.1.15,2013-12-07 23:09:00,
2013-12-07 17:14:00,20.2,7.0,30.55,North,359,2.0,2.0,56,0.00,,,0.00,Wunderground v.1.15,2013-12-07 23:14:00,
2013-12-07 17:24:00,20.1,6.9,30.56,NE,41,1.0,3.0,56,0.00,,,0.00,Wunderground v.1.15,2013-12-07 23:24:00,
2013-12-07 17:34:00,19.9,7.1,30.55,NNW,334,0.0,2.0,57,0.00,,,0.00,Wunderground v.1.15,2013-12-07 23:34:00,
2013-12-07 17:44:00,19.8,7.4,30.53,North,351,1.0,2.0,58,0.00,,,0.00,Wunderground v.1.15,2013-12-07 23:44:00,
2013-12-07 17:49:00,19.7,7.3,30.54,NNW,342,1.0,2.0,58,0.00,,,0.00,Wunderground v.1.15,2013-12-07 23:49:00,
2013-12-07 17:59:00,19.8,7.4,30.56,North,356,0.0,2.0,58,0.00,,,0.00,Wunderground v.1.15,2013-12-07 23:59:00,
2013-12-07 18:09:00,19.9,7.5,30.55,NNW,327,0.0,2.0,58,0.00,,,0.00,Wunderground v.1.15,2013-12-08 00:09:00,
2013-12-07 18:19:00,19.8,7.8,30.57,ENE,73,0.0,2.0,59,0.00,,,0.00,Wunderground v.1.15,2013-12-08 00:19:00,
2013-12-07 18:29:00,19.6,8.0,30.56,North,3,0.0,2.0,60,0.00,,,0.00,Wunderground v.1.15,2013-12-08 00:29:00,
2013-12-07 18:39:00,19.2,7.6,30.56,North,354,0.0,2.0,60,0.00,,,0.00,Wunderground v.1.15,2013-12-08 00:39:00,
2013-12-07 18:49:00,19.0,8.1,30.56,North,349,0.0,2.0,62,0.00,,,0.00,Wunderground v.1.15,2013-12-08 00:49:00,
2013-12-07 18:59:00,18.9,8.0,30.57,North,349,0.0,2.0,62,0.00,,,0.00,Wunderground v.1.15,2013-12-08 00:59:00,
2013-12-07 19:04:00,19.1,8.6,30.57,North,351,0.0,2.0,63,0.00,,,0.00,Wunderground v.1.15,2013-12-08 01:04:00,
2013-12-07 19:09:00,19.1,8.6,30.57,North,351,0.0,2.0,63,0.00,,,0.00,Wunderground v.1.15,2013-12-08 01:09:00,
2013-12-07 19:19:00,19.1,8.6,30.56,NNW,345,0.0,2.0,63,0.00,,,0.00,Wunderground v.1.15,2013-12-08 01:19:00,
2013-12-07 19:29:00,19.2,8.7,30.56,WNW,303,0.0,2.0,63,0.00,,,0.00,Wunderground v.1.15,2013-12-08 01:29:00,
2013-12-07 19:39:00,19.3,8.4,30.55,NNW,342,1.0,1.0,62,0.00,,,0.00,Wunderground v.1.15,2013-12-08 01:39:00,
2013-12-07 19:44:00,19.4,8.5,30.55,NNW,329,0.0,2.0,62,0.00,,,0.00,Wunderground v.1.15,2013-12-08 01:44:00,
2013-12-07 19:54:00,19.5,8.2,30.54,NNW,332,0.0,2.0,61,0.00,,,0.00,Wunderground v.1.15,2013-12-08 01:54:00,
2013-12-07 20:04:00,19.6,8.3,30.53,NNE,21,1.0,4.0,61,0.00,,,0.00,Wunderground v.1.15,2013-12-08 02:04:00,
2013-12-07 20:14:00,19.6,8.3,30.53,North,6,1.0,2.0,61,0.00,,,0.00,Wunderground v.1.15,2013-12-08 02:14:00,
2013-12-07 20:19:00,19.6,8.0,30.53,NNW,338,1.0,1.0,60,0.00,,,0.00,Wunderground v.1.15,2013-12-08 02:19:00,
2013-12-07 20:29:00,19.6,8.0,30.53,North,1,1.0,5.0,60,0.00,,,0.00,Wunderground v.1.15,2013-12-08 02:29:00,
2013-12-07 20:39:00,19.6,8.0,30.53,NW,305,1.0,1.0,60,0.00,,,0.00,Wunderground v.1.15,2013-12-08 02:39:00,
2013-12-07 20:49:00,19.7,8.0,30.54,North,354,1.0,6.0,60,0.00,,,0.00,Wunderground v.1.15,2013-12-08 02:49:00,
2013-12-07 20:59:00,19.6,8.3,30.53,NW,304,1.0,2.0,61,0.00,,,0.00,Wunderground v.1.15,2013-12-08 02:59:00,
2013-12-07 21:09:00,19.6,8.3,30.52,NNW,335,1.0,1.0,61,0.00,,,0.00,Wunderground v.1.15,2013-12-08 03:09:00,
2013-12-07 21:19:00,19.6,8.3,30.51,North,360,2.0,3.0,61,0.00,,,0.00,Wunderground v.1.15,2013-12-08 03:19:00,
2013-12-07 21:29:00,19.5,8.2,30.50,NNW,342,2.0,2.0,61,0.00,,,0.00,Wunderground v.1.15,2013-12-08 03:29:00,
2013-12-07 21:39:00,19.5,8.2,30.50,NNW,347,1.0,1.0,61,0.00,,,0.00,Wunderground v.1.15,2013-12-08 03:39:00,
2013-12-07 21:44:00,19.5,8.6,30.51,North,1,1.0,2.0,62,0.00,,,0.00,Wunderground v.1.15,2013-12-08 03:44:00,
2013-12-07 21:54:00,19.6,8.3,30.51,North,356,2.0,9.0,61,0.00,,,0.00,Wunderground v.1.15,2013-12-08 03:54:00,
2013-12-07 22:04:00,19.6,8.7,30.50,North,354,1.0,3.0,62,0.00,,,0.00,Wunderground v.1.15,2013-12-08 04:04:00,
2013-12-07 22:14:00,19.5,8.6,30.49,NNW,347,2.0,6.0,62,0.00,,,0.00,Wunderground v.1.15,2013-12-08 04:14:00,
2013-12-07 22:19:00,19.5,8.6,30.49,NNE,25,3.0,3.0,62,0.00,,,0.00,Wunderground v.1.15,2013-12-08 04:19:00,
2013-12-07 22:29:00,19.5,8.6,30.48,NNE,27,1.0,1.0,62,0.00,,,0.00,Wunderground v.1.15,2013-12-08 04:29:00,
2013-12-07 22:39:00,19.5,8.6,30.48,NNW,346,1.0,1.0,62,0.00,,,0.00,Wunderground v.1.15,2013-12-08 04:39:00,
2013-12-07 22:49:00,19.6,9.0,30.48,NW,311,1.0,1.0,63,0.00,,,0.00,Wunderground v.1.15,2013-12-08 04:49:00,
2013-12-07 22:54:00,19.6,9.0,30.48,NNE,27,1.0,6.0,63,0.00,,,0.00,Wunderground v.1.15,2013-12-08 04:54:00,
2013-12-07 23:04:00,19.6,8.7,30.47,NNE,25,3.0,3.0,62,0.00,,,0.00,Wunderground v.1.15,2013-12-08 05:04:00,
2013-12-07 23:09:00,19.6,8.7,30.47,NNE,30,3.0,6.0,62,0.00,,,0.00,Wunderground v.1.15,2013-12-08 05:09:00,
2013-12-07 23:14:00,19.6,9.0,30.46,NNW,328,3.0,6.0,63,0.00,,,0.00,Wunderground v.1.15,2013-12-08 05:14:00,
2013-12-07 23:19:00,19.6,9.4,30.46,North,351,2.0,9.0,64,0.00,,,0.00,Wunderground v.1.15,2013-12-08 05:19:00,
2013-12-07 23:29:00,19.3,10.1,30.46,North,11,4.0,4.0,67,0.00,,,0.00,Wunderground v.1.15,2013-12-08 05:29:00,
2013-12-07 23:34:00,19.1,10.6,30.45,NE,41,3.0,4.0,69,0.00,,,0.00,Wunderground v.1.15,2013-12-08 05:34:00,
2013-12-07 23:44:00,19.0,10.8,30.44,NNE,33,1.0,3.0,70,0.00,,,0.00,Wunderground v.1.15,2013-12-08 05:44:00,
2013-12-07 23:54:00,18.9,11.0,30.43,North,351,2.0,2.0,71,0.00,,,0.00,Wunderground v.1.15,2013-12-08 05:54:00,